"startDT [UTC]","vpos","CH4 [ppm]","stdev(CH4) [ppm]","CO2 [ppm]","stdev(CO2) [ppm]","H2O [ppm]","stdev(H2O)","p_LGR [torr]","T_LGR [C]","mt1_LGR [us]","mt2_LGR [us]","T_ECpre [C]","T_EC1 [C]","T_EC2 [C]","p_inlet [hPa]","p_in [hPa]","p_out [hPa]","T_inlet [C]","RH_inlet [%]","dwpt_inlet [C]","T_vent [C]","RH_vent [%]","dwpt_vent [C]","flow_vent [l min-1]","flow_inlet [l min-1]","dwpt_sample [C]","T_room [C]"
2012-12-12 02:32:00,0.0,1.9166,0.0009,-1.00,0.00,31.3,24.5,138.08,29.83,24.65,36.55,0.04,-272.75,-272.75,-42,574,-937,24.4,1.8,-28.8,24.4,1.9,-28.7,5.73,2.41,-27.1,29.0
2012-12-12 02:33:00,0.0,1.9163,0.0010,-1.00,0.00,34.8,24.6,138.08,29.83,24.65,36.54,0.04,-272.75,-272.75,-42,574,-937,24.4,1.8,-29.0,24.4,1.9,-28.7,5.73,2.41,-27.1,29.1
2012-12-12 02:34:00,0.0,1.9168,0.0009,-1.00,0.00,42.0,26.3,138.08,29.83,24.65,36.55,0.04,-272.75,-272.75,-42,574,-937,24.4,1.8,-29.0,24.4,1.9,-28.6,5.73,2.42,-27.0,29.2
2012-12-12 02:35:00,0.0,1.9163,0.0008,-1.00,0.00,34.0,26.6,138.08,29.83,24.65,36.55,0.04,-272.74,-272.74,-42,574,-937,24.4,1.8,-29.0,24.4,1.9,-28.6,5.73,2.41,-27.0,29.2
2012-12-12 02:36:00,0.0,1.9165,0.0008,-1.00,0.00,31.2,25.5,138.07,29.83,24.65,36.55,0.04,-272.75,-272.75,-42,574,-937,24.4,1.8,-29.0,24.4,1.9,-28.6,5.73,2.39,-27.0,29.2
2012-12-12 02:37:00,0.0,1.9164,0.0009,-1.00,0.00,39.9,24.7,138.07,29.83,24.65,36.55,0.04,-272.75,-272.75,-42,574,-937,24.4,1.8,-29.0,24.4,1.8,-28.8,5.73,2.38,-27.0,29.2
2012-12-12 02:38:00,0.0,1.9164,0.0009,-1.00,0.00,35.9,30.7,138.07,29.83,24.65,36.55,0.04,-272.75,-272.75,-42,574,-937,24.4,1.8,-29.1,24.5,1.8,-28.8,5.73,2.37,-27.0,29.3
2012-12-12 02:39:00,0.0,1.9168,0.0009,-1.00,0.00,30.7,29.2,138.07,29.83,24.65,36.55,0.04,-272.75,-272.75,-42,574,-937,24.4,1.8,-29.1,24.5,1.8,-28.8,5.73,2.37,-27.0,29.3
2012-12-12 02:40:00,0.0,1.9168,0.0008,-1.00,0.00,35.7,26.3,138.07,29.83,24.65,36.55,0.04,-272.74,-272.75,-42,574,-937,24.4,1.8,-29.1,24.4,1.8,-28.9,5.73,2.37,-27.0,29.3
2012-12-12 02:41:00,0.0,1.9164,0.0009,-1.00,0.00,47.5,29.8,138.07,29.83,24.66,36.55,0.04,-272.75,-272.75,-42,574,-937,24.4,1.8,-29.2,24.4,1.8,-28.9,5.73,2.40,-27.0,29.3
2012-12-12 02:42:00,0.0,1.9167,0.0009,-1.00,0.00,35.0,29.2,138.07,29.84,24.65,36.55,0.04,-272.75,-272.75,-42,574,-937,24.4,1.8,-29.3,24.5,1.8,-28.9,5.73,2.41,-27.0,29.3
2012-12-12 02:43:00,0.0,1.9165,0.0010,-1.00,0.00,44.0,31.6,138.07,29.84,24.65,36.54,0.04,-272.75,-272.75,-42,574,-937,24.4,1.7,-29.5,24.5,1.8,-29.1,5.73,2.42,-26.9,29.4
2012-12-12 02:44:00,0.0,1.9163,0.0008,-1.00,0.00,40.7,24.8,138.07,29.84,24.65,36.54,0.04,-272.74,-272.75,-42,574,-937,24.4,1.7,-29.4,24.5,1.8,-29.1,5.73,2.42,-26.9,29.4
2012-12-12 02:45:00,0.0,1.9167,0.0010,-1.00,0.00,38.8,30.6,138.07,29.84,24.65,36.55,0.04,-272.74,-272.75,-42,574,-937,24.5,1.7,-29.5,24.5,1.8,-29.2,5.73,2.40,-26.9,29.4
2012-12-12 02:46:00,0.0,1.9174,0.0008,-1.00,0.00,32.0,26.6,138.07,29.84,24.65,36.55,0.04,-272.75,-272.75,-42,574,-937,24.5,1.7,-29.7,24.5,1.7,-29.4,5.73,2.38,-26.9,29.4
2012-12-12 02:47:00,0.0,1.9168,0.0009,-1.00,0.00,49.0,27.6,138.07,29.84,24.65,36.55,0.04,-272.75,-272.74,-42,574,-937,24.4,1.7,-29.8,24.5,1.7,-29.4,5.73,2.37,-26.9,29.4
2012-12-12 02:48:00,0.0,1.9166,0.0009,-1.00,0.00,40.9,26.7,138.07,29.85,24.65,36.55,0.04,-272.75,-272.75,-42,574,-937,24.5,1.7,-29.8,24.5,1.7,-29.5,5.73,2.36,-26.9,29.4
2012-12-12 02:49:00,0.0,1.9166,0.0010,-1.00,0.00,42.7,31.8,138.07,29.85,24.65,36.55,0.04,-272.74,-272.75,-42,574,-937,24.4,1.7,-30.0,24.5,1.7,-29.6,5.73,2.37,-26.9,29.4
2012-12-12 02:50:00,0.0,1.9166,0.0008,-1.00,0.00,43.9,29.6,138.07,29.85,24.65,36.55,0.04,-272.75,-272.75,-42,574,-937,24.5,1.6,-30.0,24.5,1.7,-29.6,5.73,2.39,-26.9,29.4
2012-12-12 02:51:00,0.0,1.9167,0.0010,-1.00,0.00,34.2,26.5,138.07,29.85,24.65,36.55,0.04,-272.74,-272.74,-42,574,-937,24.4,1.7,-29.9,24.5,1.7,-29.6,5.73,2.40,-26.9,29.4
2012-12-12 02:52:00,0.0,1.9164,0.0010,-1.00,0.00,37.4,27.6,138.07,29.85,24.65,36.55,0.04,-272.75,-272.75,-42,574,-937,24.5,1.6,-30.0,24.5,1.7,-29.5,5.73,2.41,-26.9,29.4
2012-12-12 02:53:00,0.0,1.9163,0.0008,-1.00,0.00,39.8,32.7,138.07,29.86,24.65,36.55,0.04,-272.75,-272.75,-42,574,-937,24.5,1.6,-30.1,24.5,1.7,-29.5,5.73,2.42,-26.9,29.4
2012-12-12 02:54:00,0.0,1.9163,0.0010,-1.00,0.00,43.1,25.7,138.07,29.86,24.65,36.54,0.04,-272.75,-272.75,-42,574,-937,24.5,1.6,-30.0,24.5,1.7,-29.6,5.73,2.41,-26.9,29.4
2012-12-12 02:55:00,0.0,1.9167,0.0010,-1.00,0.00,38.2,27.7,138.07,29.86,24.65,36.55,0.04,-272.74,-272.75,-42,574,-937,24.5,1.7,-29.9,24.5,1.7,-29.5,5.73,2.40,-26.9,29.4
2012-12-12 02:56:00,0.0,1.9171,0.0009,-1.00,0.00,36.9,27.4,138.07,29.86,24.65,36.55,0.04,-272.75,-272.75,-42,574,-937,24.5,1.7,-30.0,24.5,1.7,-29.5,5.73,2.38,-26.9,29.4
2012-12-12 02:57:00,0.0,1.9173,0.0009,-1.00,0.00,38.7,28.5,138.07,29.86,24.65,36.55,0.04,-272.74,-272.75,-42,574,-937,24.5,1.6,-30.1,24.5,1.7,-29.7,5.73,2.37,-27.0,29.4
2012-12-12 02:58:00,0.0,1.9173,0.0010,-1.00,0.00,37.9,26.5,138.07,29.87,24.65,36.55,0.04,-272.74,-272.75,-42,574,-937,24.5,1.6,-30.1,24.5,1.7,-29.7,5.73,2.36,-27.0,29.4
2012-12-12 02:59:00,0.0,1.9170,0.0008,-1.00,0.00,37.0,28.7,138.07,29.87,24.65,36.55,0.04,-272.75,-272.75,-42,574,-937,24.5,1.6,-30.2,24.5,1.7,-29.8,5.73,2.37,-27.0,29.4
2012-12-12 03:00:00,0.0,1.9174,0.0010,-1.00,0.00,41.7,27.5,138.07,29.87,24.65,36.55,0.04,-272.75,-272.75,-42,574,-937,24.5,1.6,-30.2,24.5,1.7,-29.8,5.73,2.38,-27.0,29.4
2012-12-12 03:01:00,0.0,1.9172,0.0009,-1.00,0.00,37.0,30.1,138.07,29.87,24.66,36.55,0.04,-272.75,-272.74,-42,574,-937,24.5,1.6,-30.2,24.5,1.7,-29.8,5.73,2.40,-27.0,29.4
2012-12-12 03:02:00,0.0,1.9170,0.0005,-1.00,0.00,37.1,25.1,138.07,29.87,24.65,36.55,0.04,-272.75,-272.74,-42,574,-937,24.5,1.6,-30.2,24.5,1.6,-30.1,5.73,2.83,-27.0,29.4
2012-12-12 03:00:00,0.0,1.9175,0.0010,-1.00,0.00,42.1,29.7,138.07,29.87,24.65,36.56,0.04,-272.75,-272.75,-42,574,-937,24.5,1.6,-30.2,24.5,1.7,-29.8,5.73,2.38,-27.0,29.4
2012-12-12 03:01:00,0.0,1.9172,0.0007,-1.00,0.00,41.5,28.3,138.07,29.87,24.65,36.55,0.04,-272.75,-272.74,-42,574,-937,24.5,1.6,-30.2,24.5,1.7,-29.8,5.73,2.40,-27.0,29.4
2012-12-12 03:02:00,0.0,1.9173,0.0008,-1.00,0.00,37.7,25.7,138.07,29.87,24.65,36.55,0.04,-272.75,-272.75,-42,574,-937,24.5,1.6,-30.3,24.5,1.6,-30.0,5.73,2.43,-27.0,29.4
2012-12-12 03:03:00,0.0,1.9174,0.0009,-1.00,0.00,37.7,29.0,138.07,29.87,24.65,36.55,0.04,-272.75,-272.74,-42,574,-937,24.5,1.6,-30.3,24.5,1.7,-29.9,5.73,2.39,-27.0,29.5
2012-12-12 03:04:00,0.0,1.9174,0.0008,-1.00,0.00,33.9,28.3,138.07,29.88,24.65,36.54,0.04,-272.75,-272.75,-42,574,-937,24.5,1.6,-30.3,24.5,1.6,-30.0,5.73,2.40,-27.0,29.5
2012-12-12 03:05:00,0.0,1.9174,0.0008,-1.00,0.00,31.8,23.7,138.07,29.88,24.65,36.55,0.04,-272.75,-272.75,-42,574,-937,24.5,1.6,-30.3,24.5,1.7,-29.9,5.73,2.42,-27.0,29.5
2012-12-12 03:06:00,0.0,1.9178,0.0009,-1.00,0.00,23.4,25.9,138.07,29.88,24.65,36.55,0.04,-272.74,-272.75,-42,574,-937,24.5,1.6,-30.3,24.5,1.7,-29.9,5.73,2.42,-27.0,29.5
2012-12-12 03:07:00,0.0,1.9177,0.0011,-1.00,0.00,31.6,28.9,138.07,29.88,24.65,36.55,0.04,-272.75,-272.75,-42,574,-937,24.4,1.6,-30.3,24.5,1.7,-29.9,5.73,2.40,-27.0,29.5
2012-12-12 03:08:00,0.0,1.9174,0.0008,-1.00,0.00,36.5,25.8,138.07,29.88,24.66,36.55,0.04,-272.75,-272.75,-42,574,-937,24.5,1.6,-30.1,24.5,1.7,-29.8,5.73,2.39,-27.0,29.5
2012-12-12 03:09:00,0.0,1.9178,0.0009,-1.00,0.00,29.9,28.9,138.07,29.89,24.65,36.54,0.04,-272.74,-272.74,-42,574,-937,24.5,1.6,-30.1,24.5,1.7,-29.7,5.73,2.37,-27.0,29.5
2012-12-12 03:10:00,0.0,1.9184,0.0014,-1.00,0.00,34.5,26.9,138.07,29.89,24.65,36.55,0.04,-272.75,-272.75,-42,574,-937,24.5,1.6,-30.1,24.5,1.7,-29.6,5.73,2.37,-27.0,29.5
2012-12-12 03:11:00,0.0,1.9184,0.0008,-1.00,0.00,34.8,28.1,138.07,29.89,24.65,36.55,0.04,-272.75,-272.75,-42,574,-937,24.5,1.7,-30.0,24.5,1.7,-29.5,5.73,2.37,-27.0,29.5
2012-12-12 03:12:00,0.0,1.9178,0.0009,-1.00,0.00,29.9,24.8,138.07,29.89,24.65,36.54,0.04,-272.75,-272.75,-42,574,-937,24.4,1.7,-29.8,24.5,1.7,-29.5,5.73,2.37,-27.1,29.5
2012-12-12 03:13:00,0.0,1.9181,0.0009,-1.00,0.00,28.5,23.2,138.07,29.89,24.65,36.55,0.04,-272.74,-272.75,-42,574,-937,24.5,1.7,-29.8,24.5,1.7,-29.5,5.73,2.39,-27.1,29.5
2012-12-12 03:14:00,0.0,1.9178,0.0009,-1.00,0.00,31.0,22.8,138.07,29.90,24.65,36.55,0.04,-272.74,-272.75,-42,574,-937,24.5,1.7,-29.8,24.6,1.7,-29.3,5.73,2.41,-27.1,29.5
2012-12-12 03:15:00,0.0,1.9180,0.0008,-1.00,0.00,33.8,25.8,138.07,29.90,24.65,36.54,0.04,-272.75,-272.75,-42,574,-937,24.5,1.7,-29.8,24.5,1.7,-29.5,5.73,2.41,-27.0,29.5
2012-12-12 03:16:00,0.0,1.9182,0.0008,-1.00,0.00,29.0,27.0,138.07,29.90,24.65,36.55,0.04,-272.75,-272.74,-42,574,-937,24.5,1.7,-29.9,24.5,1.7,-29.5,5.73,2.41,-27.0,29.5
2012-12-12 03:17:00,0.0,1.9183,0.0010,-1.00,0.00,30.1,25.9,138.07,29.91,24.65,36.54,0.04,-272.75,-272.75,-42,574,-937,24.5,1.6,-30.0,24.6,1.7,-29.6,5.73,2.40,-27.1,29.5
2012-12-12 03:18:00,0.0,1.9184,0.0010,-1.00,0.00,27.7,27.5,138.07,29.91,24.65,36.55,0.04,-272.75,-272.75,-42,575,-937,24.5,1.6,-30.1,24.5,1.7,-29.8,5.73,2.38,-27.1,29.5
2012-12-12 03:19:00,0.0,1.9177,0.0009,-1.00,0.00,39.2,26.9,138.07,29.91,24.65,36.55,0.04,-272.74,-272.74,-42,575,-937,24.5,1.6,-30.3,24.6,1.6,-29.9,5.73,2.37,-27.1,29.5
2012-12-12 03:20:00,0.0,1.9179,0.0009,-1.00,0.00,30.9,30.4,138.07,29.92,24.66,36.55,0.04,-272.75,-272.74,-42,575,-937,24.5,1.6,-30.4,24.6,1.6,-30.0,5.73,2.36,-27.1,29.5
2012-12-12 03:21:00,0.0,1.9183,0.0009,-1.00,0.00,31.3,29.6,138.07,29.92,24.65,36.55,0.04,-272.75,-272.75,-42,575,-937,24.5,1.6,-30.5,24.5,1.6,-30.1,5.73,2.37,-27.1,29.5
2012-12-12 03:22:00,0.0,1.9184,0.0010,-1.00,0.00,35.2,26.1,138.07,29.92,24.65,36.55,0.04,-272.74,-272.75,-42,575,-937,24.5,1.6,-30.5,24.6,1.6,-30.0,5.73,2.38,-27.1,29.5
2012-12-12 03:23:00,0.0,1.9190,0.0011,-1.00,0.00,35.0,25.8,138.07,29.92,24.65,36.54,0.04,-272.74,-272.74,-42,575,-937,24.5,1.6,-30.5,24.6,1.6,-30.1,5.73,2.39,-27.1,29.5
2012-12-12 03:24:00,0.0,1.9179,0.0008,-1.00,0.00,35.7,24.4,138.07,29.93,24.65,36.55,0.04,-272.75,-272.75,-42,575,-937,24.5,1.6,-30.5,24.6,1.6,-30.3,5.73,2.41,-27.1,29.5
2012-12-12 03:25:00,0.0,1.9169,0.0008,-1.00,0.00,37.2,28.1,138.07,29.93,24.65,36.55,0.04,-272.74,-272.75,-42,575,-937,24.5,1.5,-30.7,24.6,1.6,-30.2,5.73,2.41,-27.1,29.5
2012-12-12 03:26:00,0.0,1.9161,0.0010,-1.00,0.00,31.5,26.9,138.07,29.93,24.66,36.55,0.04,-272.74,-272.74,-42,575,-937,24.5,1.5,-30.6,24.6,1.6,-30.2,5.73,2.41,-27.1,29.5
2012-12-12 03:27:00,0.0,1.9162,0.0009,-1.00,0.00,30.1,21.3,138.07,29.93,24.65,36.55,0.04,-272.75,-272.75,-42,575,-937,24.5,1.5,-30.7,24.6,1.6,-30.3,5.73,2.40,-27.1,29.5
2012-12-12 03:28:00,0.0,1.9156,0.0009,-1.00,0.00,31.8,26.0,138.07,29.94,24.66,36.55,0.04,-272.75,-272.74,-42,575,-937,24.5,1.6,-30.6,24.6,1.6,-30.3,5.73,2.38,-27.1,29.5
2012-12-12 03:29:00,0.0,1.9162,0.0008,-1.00,0.00,27.8,25.4,138.07,29.94,24.65,36.55,0.04,-272.74,-272.74,-42,575,-937,24.5,1.6,-30.3,24.6,1.6,-30.0,5.73,2.37,-27.1,29.6
2012-12-12 03:30:00,0.0,1.9166,0.0010,-1.00,0.00,33.6,28.2,138.07,29.94,24.65,36.54,0.04,-272.75,-272.74,-42,575,-937,24.5,1.7,-29.9,24.6,1.7,-29.6,5.73,2.36,-27.1,29.6
2012-12-12 03:31:00,0.0,1.9159,0.0011,-1.00,0.00,24.2,23.8,138.07,29.95,24.66,36.54,0.04,-272.75,-272.75,-42,575,-937,24.5,1.7,-29.8,24.6,1.7,-29.6,5.73,2.36,-27.1,29.6
2012-12-12 03:32:00,0.0,1.9166,0.0011,-1.00,0.00,23.1,22.9,138.07,29.95,24.65,36.54,0.04,-272.75,-272.74,-42,575,-937,24.5,1.7,-29.7,24.6,1.7,-29.3,5.73,2.37,-27.2,29.6
2012-12-12 03:33:00,0.0,1.9175,0.0010,-1.00,0.00,23.1,21.2,138.07,29.95,24.65,36.55,0.04,-272.75,-272.75,-42,575,-937,24.5,1.7,-29.7,24.6,1.7,-29.3,5.73,2.39,-27.2,29.6
2012-12-12 03:34:00,0.0,1.9174,0.0009,-1.00,0.00,24.5,25.0,138.07,29.95,24.65,36.55,0.04,-272.75,-272.75,-42,575,-937,24.5,1.7,-29.5,24.6,1.7,-29.4,5.73,2.40,-27.2,29.6
2012-12-12 03:35:00,0.0,1.9167,0.0010,-1.00,0.00,29.3,27.9,138.07,29.96,24.66,36.55,0.04,-272.74,-272.74,-42,575,-937,24.6,1.7,-29.5,24.6,1.8,-29.3,5.73,2.41,-27.2,29.5
2012-12-12 03:36:00,0.0,1.9159,0.0008,-1.00,0.00,32.2,29.3,138.07,29.96,24.66,36.55,0.04,-272.74,-272.75,-42,575,-937,24.6,1.7,-29.5,24.6,1.7,-29.4,5.73,2.41,-27.2,29.6
2012-12-12 03:37:00,0.0,1.9171,0.0008,-1.00,0.00,19.4,19.7,138.07,29.96,24.65,36.55,0.04,-272.75,-272.75,-42,575,-937,24.6,1.7,-29.7,24.6,1.7,-29.4,5.73,2.41,-27.2,29.6
2012-12-12 03:38:00,0.0,1.9166,0.0009,-1.00,0.00,24.7,22.3,138.07,29.96,24.65,36.54,0.04,-272.75,-272.75,-42,575,-937,24.6,1.7,-29.8,24.6,1.7,-29.5,5.73,2.40,-27.2,29.6
2012-12-12 03:39:00,0.0,1.9160,0.0011,-1.00,0.00,23.3,22.1,138.07,29.96,24.65,36.55,0.04,-272.74,-272.75,-42,575,-937,24.6,1.7,-29.9,24.6,1.7,-29.5,5.73,2.38,-27.2,29.6
2012-12-12 03:40:00,0.0,1.9164,0.0008,-1.00,0.00,23.8,23.7,138.07,29.96,24.65,36.55,0.04,-272.74,-272.75,-42,575,-937,24.6,1.6,-30.0,24.6,1.7,-29.7,5.73,2.37,-27.2,29.6
2012-12-12 03:41:00,0.0,1.9165,0.0008,-1.00,0.00,23.5,25.1,138.07,29.97,24.65,36.54,0.04,-272.75,-272.75,-42,575,-937,24.6,1.6,-30.0,24.6,1.7,-29.8,5.73,2.36,-27.2,29.5
2012-12-12 03:42:00,0.0,1.9168,0.0010,-1.00,0.00,21.6,20.4,138.07,29.97,24.65,36.55,0.04,-272.75,-272.75,-42,575,-937,24.6,1.6,-30.0,24.6,1.7,-29.9,5.73,2.37,-27.3,29.5
2012-12-12 03:43:00,0.0,1.9164,0.0009,-1.00,0.00,21.6,24.0,138.07,29.97,24.66,36.54,0.04,-272.75,-272.74,-42,575,-937,24.6,1.6,-30.2,24.6,1.7,-29.8,5.73,2.37,-27.3,29.5
2012-12-12 03:44:00,0.0,1.9165,0.0007,-1.00,0.00,23.5,28.8,138.07,29.97,24.65,36.54,0.04,-272.75,-272.75,-42,575,-937,24.6,1.6,-30.2,24.6,1.7,-29.8,5.73,2.39,-27.3,29.6
2012-12-12 03:45:00,0.0,1.9160,0.0009,-1.00,0.00,24.3,28.1,138.07,29.98,24.65,36.54,0.04,-272.75,-272.75,-42,575,-937,24.6,1.6,-30.3,24.6,1.6,-30.0,5.73,2.40,-27.3,29.5
2012-12-12 03:46:00,0.0,1.9162,0.0009,-1.00,0.00,21.4,24.5,138.07,29.98,24.65,36.54,0.04,-272.74,-272.74,-42,575,-937,24.6,1.6,-30.4,24.6,1.6,-30.1,5.73,2.41,-27.3,29.5
2012-12-12 03:47:00,0.0,1.9160,0.0009,-1.00,0.00,14.8,18.1,138.07,29.98,24.65,36.55,0.04,-272.74,-272.74,-42,575,-937,24.6,1.6,-30.4,24.6,1.6,-30.1,5.73,2.41,-27.3,29.5
2012-12-12 03:48:00,0.0,1.9168,0.0009,-1.00,0.00,17.8,20.8,138.07,29.98,24.65,36.54,0.04,-272.75,-272.75,-42,575,-937,24.6,1.6,-30.4,24.6,1.6,-30.1,5.73,2.41,-27.3,29.5
2012-12-12 03:49:00,0.0,1.9166,0.0009,-1.00,0.00,17.6,19.9,138.07,29.99,24.65,36.55,0.04,-272.75,-272.75,-42,575,-937,24.6,1.6,-30.4,24.6,1.6,-30.1,5.73,2.39,-27.3,29.6
2012-12-12 03:50:00,0.0,1.9171,0.0007,-1.00,0.00,19.0,23.4,138.07,29.99,24.65,36.54,0.04,-272.74,-272.75,-42,575,-937,24.5,1.6,-30.5,24.6,1.6,-30.1,5.73,2.38,-27.3,29.5
2012-12-12 03:51:00,0.0,1.9168,0.0009,-1.00,0.00,19.9,26.1,138.07,29.99,24.65,36.55,0.04,-272.74,-272.75,-42,575,-937,24.6,1.6,-30.4,24.6,1.6,-30.1,5.73,2.37,-27.3,29.5
2012-12-12 03:52:00,0.0,1.9164,0.0008,-1.00,0.00,16.9,20.0,138.07,29.99,24.66,36.55,0.04,-272.75,-272.74,-42,575,-937,24.6,1.5,-30.7,24.6,1.6,-30.2,5.73,2.36,-27.3,29.5
2012-12-12 03:53:00,0.0,1.9169,0.0010,-1.00,0.00,18.6,18.9,138.07,29.99,24.65,36.55,0.04,-272.75,-272.74,-42,575,-937,24.6,1.5,-30.7,24.6,1.6,-30.3,5.73,2.37,-27.3,29.6
2012-12-12 03:54:00,0.0,1.9172,0.0010,-1.00,0.00,19.3,23.7,138.07,30.00,24.65,36.55,0.04,-272.75,-272.75,-42,575,-937,24.5,1.5,-30.9,24.6,1.6,-30.4,5.73,2.37,-27.4,29.6
2012-12-12 03:55:00,0.0,1.9172,0.0008,-1.00,0.00,15.4,21.2,138.07,30.00,24.65,36.55,0.04,-272.75,-272.75,-42,575,-937,24.6,1.5,-30.9,24.6,1.5,-30.6,5.73,2.39,-27.4,29.6
2012-12-12 03:56:00,0.0,1.9166,0.0009,-1.00,0.00,17.9,22.8,138.07,30.00,24.65,36.55,0.04,-272.74,-272.75,-42,575,-937,24.6,1.5,-31.0,24.6,1.5,-30.7,5.73,2.40,-27.4,29.6
2012-12-12 03:57:00,0.0,1.9167,0.0007,-1.00,0.00,20.1,23.3,138.07,30.00,24.66,36.54,0.04,-272.75,-272.74,-42,575,-937,24.6,1.5,-30.9,24.6,1.5,-30.6,5.73,2.41,-27.4,29.5
2012-12-12 03:58:00,0.0,1.9173,0.0009,-1.00,0.00,18.8,20.1,138.07,30.01,24.65,36.55,0.04,-272.75,-272.75,-42,575,-937,24.6,1.5,-31.0,24.6,1.5,-30.6,5.73,2.41,-27.4,29.6
2012-12-12 03:59:00,0.0,1.9168,0.0010,-1.00,0.00,23.0,25.3,138.07,30.01,24.65,36.55,0.04,-272.75,-272.74,-42,575,-937,24.6,1.5,-31.0,24.6,1.5,-30.7,5.73,2.40,-27.4,29.6
2012-12-12 04:00:00,0.0,1.9170,0.0011,-1.00,0.00,19.6,23.4,138.07,30.01,24.66,36.55,0.04,-272.74,-272.74,-42,575,-937,24.6,1.5,-30.9,24.6,1.5,-30.9,5.73,2.39,-27.4,29.6
2012-12-12 04:01:00,0.0,1.9173,0.0009,-1.00,0.00,15.1,19.9,138.07,30.01,24.65,36.55,0.04,-272.75,-272.75,-42,575,-937,24.6,1.5,-30.9,24.7,1.5,-30.6,5.73,2.37,-27.4,29.6
2012-12-12 04:02:00,0.0,1.9170,0.0010,-1.00,0.00,17.3,19.9,138.07,30.01,24.65,36.55,0.04,-272.74,-272.74,-42,575,-937,24.6,1.5,-31.0,24.6,1.5,-30.6,5.73,2.37,-27.4,29.6
2012-12-12 04:03:00,0.0,1.9173,0.0009,-1.00,0.00,14.4,24.0,138.07,30.01,24.65,36.55,0.04,-272.74,-272.74,-42,575,-937,24.6,1.5,-31.0,24.6,1.5,-30.6,5.73,2.36,-27.4,29.6
2012-12-12 04:04:00,0.0,1.9162,0.0010,-1.00,0.00,16.1,22.4,138.07,30.01,24.65,36.55,0.04,-272.75,-272.75,-42,575,-937,24.6,1.5,-31.0,24.6,1.6,-30.4,5.73,2.37,-27.4,29.6
2012-12-12 04:05:00,0.0,1.9165,0.0010,-1.00,0.00,15.9,19.2,138.07,30.01,24.65,36.55,0.04,-272.74,-272.75,-42,575,-937,24.6,1.5,-31.0,24.7,1.6,-30.5,5.73,2.38,-27.4,29.6
2012-12-12 04:06:00,0.0,1.9169,0.0009,-1.00,0.00,19.4,21.2,138.07,30.01,24.65,36.54,0.04,-272.74,-272.74,-42,575,-937,24.6,1.5,-30.9,24.7,1.6,-30.4,5.73,2.40,-27.4,29.6
2012-12-12 04:07:00,0.0,1.9165,0.0009,-1.00,0.00,15.4,18.9,138.07,30.01,24.65,36.55,0.04,-272.74,-272.75,-42,575,-937,24.6,1.5,-31.0,24.7,1.6,-30.5,5.73,2.41,-27.5,29.6
2012-12-12 04:08:00,0.0,1.9172,0.0009,-1.00,0.00,17.6,23.9,138.07,30.02,24.65,36.55,0.04,-272.74,-272.75,-42,575,-937,24.6,1.5,-31.0,24.6,1.5,-30.6,5.73,2.41,-27.5,29.6
2012-12-12 04:09:00,0.0,1.9163,0.0008,-1.00,0.00,16.9,19.0,138.07,30.02,24.65,36.55,0.04,-272.75,-272.75,-42,575,-937,24.6,1.5,-31.0,24.7,1.5,-30.7,5.73,2.40,-27.5,29.6
2012-12-12 04:10:00,0.0,1.9160,0.0008,-1.00,0.00,16.4,21.5,138.07,30.02,24.65,36.55,0.04,-272.75,-272.74,-42,575,-937,24.6,1.5,-31.0,24.7,1.5,-30.7,5.73,2.40,-27.5,29.6
2012-12-12 04:11:00,0.0,1.9161,0.0009,-1.00,0.00,13.5,17.2,138.07,30.02,24.65,36.54,0.04,-272.75,-272.75,-42,575,-937,24.6,1.5,-31.0,24.7,1.5,-30.6,5.73,2.38,-27.5,29.6
2012-12-12 04:12:00,0.0,1.9164,0.0008,-1.00,0.00,10.5,17.5,138.07,30.02,24.65,36.55,0.04,-272.75,-272.75,-42,575,-937,24.6,1.5,-30.8,24.7,1.6,-30.4,5.73,2.37,-27.5,29.6
2012-12-12 04:13:00,0.0,1.9163,0.0008,-1.00,0.00,17.9,23.1,138.07,30.02,24.65,36.55,0.04,-272.74,-272.74,-42,575,-937,24.6,1.5,-30.8,24.7,1.6,-30.4,5.73,2.36,-27.5,29.6
2012-12-12 04:14:00,0.0,1.9162,0.0008,-1.00,0.00,14.4,19.4,138.07,30.02,24.65,36.55,0.04,-272.74,-272.75,-42,575,-937,24.6,1.5,-30.8,24.7,1.6,-30.3,5.73,2.36,-27.5,29.6
2012-12-12 04:15:00,0.0,1.9161,0.0008,-1.00,0.00,15.6,19.7,138.07,30.03,24.65,36.55,0.04,-272.75,-272.75,-42,575,-937,24.6,1.5,-30.8,24.7,1.6,-30.1,5.73,2.37,-27.5,29.6
2012-12-12 04:16:00,0.0,1.9165,0.0009,-1.00,0.00,12.3,15.6,138.07,30.03,24.65,36.55,0.04,-272.75,-272.74,-42,575,-937,24.6,1.5,-30.7,24.7,1.6,-30.3,5.73,2.38,-27.5,29.6
2012-12-12 04:17:00,0.0,1.9162,0.0009,-1.00,0.00,12.5,21.5,138.07,30.03,24.65,36.55,0.04,-272.75,-272.75,-42,575,-937,24.6,1.5,-30.8,24.7,1.6,-30.4,5.73,2.39,-27.5,29.6
2012-12-12 04:18:00,0.0,1.9163,0.0008,-1.00,0.00,12.5,18.8,138.07,30.03,24.65,36.55,0.04,-272.75,-272.75,-42,575,-937,24.6,1.5,-30.8,24.7,1.6,-30.4,5.73,2.40,-27.5,29.6
2012-12-12 04:19:00,0.0,1.9151,0.0010,-1.00,0.00,14.7,22.2,138.07,30.03,24.66,36.55,0.04,-272.74,-272.75,-42,575,-937,24.6,1.5,-30.7,24.7,1.6,-30.1,5.73,2.41,-27.6,29.6
2012-12-12 04:20:00,0.0,1.9164,0.0012,-1.00,0.00,10.5,16.4,138.07,30.03,24.65,36.55,0.04,-272.74,-272.75,-42,575,-937,24.6,1.5,-30.8,24.7,1.6,-30.3,5.73,2.41,-27.6,29.6
2012-12-12 04:21:00,0.0,1.9169,0.0019,-1.00,0.00,11.7,16.1,138.07,30.03,24.66,36.55,0.04,-272.75,-272.75,-42,575,-937,24.6,1.5,-30.7,24.7,1.6,-30.4,5.73,2.40,-27.6,29.5
2012-12-12 04:22:00,0.0,1.9169,0.0015,-1.00,0.00,9.4,16.9,138.07,30.03,24.66,36.55,0.04,-272.75,-272.75,-42,575,-937,24.6,1.5,-30.8,24.7,1.6,-30.4,5.73,2.39,-27.6,29.6
2012-12-12 04:23:00,0.0,1.9181,0.0019,-1.00,0.00,11.2,20.3,138.07,30.03,24.65,36.54,0.04,-272.74,-272.75,-42,575,-937,24.6,1.5,-30.8,24.6,1.6,-30.5,5.73,2.38,-27.6,29.5
2012-12-12 04:24:00,0.0,1.9184,0.0017,-1.00,0.00,14.0,20.9,138.07,30.03,24.65,36.55,0.04,-272.75,-272.75,-42,575,-937,24.6,1.5,-31.0,24.7,1.5,-30.5,5.73,2.37,-27.6,29.5
2012-12-12 04:25:00,0.0,1.9163,0.0011,-1.00,0.00,19.0,22.3,138.07,30.03,24.66,36.55,0.04,-272.75,-272.75,-42,575,-937,24.6,1.5,-31.1,24.7,1.5,-30.7,5.73,2.36,-27.6,29.6
2012-12-12 04:26:00,0.0,1.9164,0.0008,-1.00,0.00,9.1,15.2,138.07,30.04,24.66,36.55,0.04,-272.74,-272.75,-42,575,-937,24.6,1.5,-31.2,24.6,1.5,-30.8,5.73,2.36,-27.7,29.5
2012-12-12 04:27:00,0.0,1.9168,0.0008,-1.00,0.00,12.3,16.2,138.07,30.04,24.66,36.55,0.04,-272.75,-272.74,-42,575,-937,24.6,1.5,-31.2,24.7,1.5,-30.8,5.73,2.38,-27.7,29.5
2012-12-12 04:28:00,0.0,1.9178,0.0009,-1.00,0.00,10.3,18.2,138.07,30.03,24.65,36.55,0.04,-272.74,-272.75,-42,575,-937,24.6,1.5,-31.2,24.6,1.5,-30.7,5.73,2.39,-27.7,29.5
2012-12-12 04:29:00,0.0,1.9166,0.0008,-1.00,0.00,9.2,14.9,138.07,30.04,24.66,36.55,0.04,-272.75,-272.75,-42,575,-937,24.6,1.5,-31.2,24.6,1.5,-30.8,5.73,2.40,-27.7,29.5
2012-12-12 04:30:00,0.0,1.9157,0.0009,-1.00,0.00,13.2,21.2,138.07,30.04,24.66,36.55,0.04,-272.74,-272.74,-42,575,-937,24.6,1.5,-31.2,24.7,1.5,-30.9,5.73,2.41,-27.7,29.5
2012-12-12 04:31:00,0.0,1.9154,0.0008,-1.00,0.00,11.2,17.4,138.07,30.04,24.65,36.55,0.04,-272.74,-272.75,-42,574,-937,24.6,1.5,-31.1,24.6,1.5,-30.8,5.73,2.41,-27.7,29.5
2012-12-12 04:32:00,0.0,1.9152,0.0011,-1.00,0.00,9.1,16.7,138.07,30.04,24.66,36.55,0.04,-272.75,-272.75,-42,574,-937,24.6,1.5,-30.9,24.6,1.5,-30.8,5.73,2.40,-27.7,29.5
2012-12-12 04:33:00,0.0,1.9154,0.0011,-1.00,0.00,13.6,21.5,138.07,30.04,24.65,36.54,0.04,-272.74,-272.75,-42,574,-937,24.6,1.5,-31.0,24.6,1.5,-30.8,5.73,2.39,-27.7,29.5
2012-12-12 04:34:00,0.0,1.9153,0.0012,-1.00,0.00,15.0,22.4,138.07,30.04,24.66,36.55,0.04,-272.74,-272.74,-42,575,-937,24.6,1.5,-30.9,24.6,1.5,-30.6,5.73,2.38,-27.7,29.5
2012-12-12 04:35:00,0.0,1.9173,0.0009,-1.00,0.00,16.2,21.5,138.07,30.04,24.65,36.54,0.04,-272.75,-272.75,-42,574,-937,24.6,1.5,-31.0,24.6,1.5,-30.8,5.73,2.37,-27.7,29.5
2012-12-12 04:36:00,0.0,1.9167,0.0010,-1.00,0.00,12.7,21.6,138.06,30.05,24.65,36.55,0.04,-272.74,-272.75,-42,575,-937,24.6,1.5,-30.9,24.6,1.5,-30.8,5.73,2.36,-27.7,29.5
2012-12-12 04:37:00,0.0,1.9170,0.0011,-1.00,0.00,14.3,21.7,138.06,30.05,24.66,36.56,0.04,-272.75,-272.75,-42,574,-937,24.6,1.5,-31.0,24.6,1.5,-30.8,5.73,2.37,-27.7,29.5
2012-12-12 04:38:00,0.0,1.9168,0.0009,-1.00,0.00,16.7,22.9,138.05,30.06,24.65,36.55,0.04,-272.75,-272.75,-42,574,-937,24.6,1.5,-31.0,24.6,1.5,-30.8,5.73,2.37,-27.7,29.5
2012-12-12 04:39:00,0.0,1.9162,0.0013,-1.00,0.00,14.3,26.3,138.06,30.05,24.65,36.55,0.04,-272.74,-272.75,-42,575,-937,24.6,1.5,-31.0,24.6,1.5,-30.8,5.73,2.39,-27.8,29.5
2012-12-12 04:40:00,0.0,1.9157,0.0009,-1.00,0.00,8.9,16.7,138.07,30.05,24.65,36.55,0.04,-272.74,-272.75,-42,575,-937,24.6,1.5,-30.9,24.6,1.5,-30.8,5.73,2.39,-27.7,29.5
2012-12-12 04:41:00,0.0,1.9158,0.0009,-1.00,0.00,6.0,13.8,138.07,30.05,24.66,36.55,0.04,-272.75,-272.75,-42,574,-937,24.6,1.5,-31.0,24.6,1.5,-30.8,5.73,2.41,-27.8,29.5
2012-12-12 04:42:00,0.0,1.9156,0.0009,-1.00,0.00,14.7,21.2,138.07,30.05,24.65,36.55,0.04,-272.74,-272.75,-42,575,-937,24.6,1.5,-31.1,24.6,1.5,-30.7,5.73,2.41,-27.8,29.5
2012-12-12 04:43:00,0.0,1.9145,0.0009,-1.00,0.00,6.4,15.4,138.07,30.05,24.66,36.55,0.04,-272.74,-272.74,-42,574,-937,24.6,1.5,-31.2,24.7,1.5,-30.8,5.73,2.40,-27.8,29.5
2012-12-12 04:44:00,0.0,1.9145,0.0008,-1.00,0.00,6.2,11.6,138.07,30.06,24.65,36.55,0.04,-272.75,-272.75,-42,574,-937,24.6,1.5,-31.1,24.6,1.5,-30.8,5.73,2.39,-27.9,29.5
2012-12-12 04:45:00,0.0,1.9147,0.0009,-1.00,0.00,10.6,17.0,138.07,30.06,24.65,36.55,0.04,-272.75,-272.75,-42,574,-937,24.6,1.5,-31.2,24.6,1.5,-30.9,5.73,2.39,-27.9,29.5
2012-12-12 04:46:00,0.0,1.9148,0.0007,-1.00,0.00,10.4,18.4,138.07,30.06,24.65,36.55,0.04,-272.74,-272.75,-42,574,-937,24.6,1.4,-31.3,24.6,1.5,-31.0,5.73,2.37,-27.9,29.5
2012-12-12 04:47:00,0.0,1.9168,0.0013,-1.00,0.00,7.4,13.8,138.07,30.06,24.66,36.55,0.04,-272.74,-272.75,-42,574,-937,24.6,1.4,-31.4,24.6,1.5,-30.9,5.73,2.36,-27.9,29.5